Angleton, TX

3:17 PM CST on November 16, 2019 (GMT -0600)
Brazoria County

Weather History for KLBX - October, 2019

Change the Weather History Date:

Monday, October 21, 2019

  Actual Average Record
Temperature  
Mean Temperature 72 °F -  
Max Temperature 82 °F 77 °F 90 °F (2017)
Min Temperature 62 °F 60 °F 39 °F (1999)
Cooling Degree Days 6    
Growing Degree Days 22 (Base 50)    
Moisture  
Dew Point 69 °F    
Average Humidity 87    
Maximum Humidity 94    
Minimum Humidity 58    
Precipitation  
Precipitation 1.56 in - - ()
Sea Level Pressure  
Sea Level Pressure 29.80 in    
Wind  
Wind Speed 10 mph ()    
Max Wind Speed 17 mph    
Max Gust Speed 29 mph    
Visibility 7.5 miles    
Events Rain , Thunderstorm    
Averages and records for this station are not official NWS values.
T = Trace of Precipitation, MM = Missing Value Source: Averaged Metar Reports

Daily Weather History Graph

Daily Weather History Graph

Search for Another Location

Airport or City:

Astronomy

Oct. 21, 2019 Rise Set
Actual Time 7:26 AM CDT 6:45 PM CDT
Civil Twilight 7:02 AM CDT 7:09 PM CDT
Nautical Twilight 6:34 AM CDT 7:37 PM CDT
Astronomical Twilight 6:07 AM CDT 8:05 PM CDT
Moon 12:14 AM CDT (10/21) 2:29 PM CDT (10/21)
Length of Visible Light 12h 07m
Length of Day
11h 19m
Waning Gibbous, 48% of the Moon is Illuminated
Oct 21
Waning Gibbous
Oct 27
New
Nov 4
First Quarter
Nov 12
Full
Nov 19
Last Quarter

Hourly Weather History & Observations

Time (CDT) Temp. Heat Index Dew Point Humidity Pressure Visibility Wind Dir Wind Speed Gust Speed Precip Events Conditions
12:53 AM 80.1 °F 85.1 °F 75.0 °F 85% 29.74 in 10.0 mi South 9.2 mph - N/A   Partly Cloudy
1:04 AM 81.0 °F 87.3 °F 75.9 °F 85% 29.75 in 10.0 mi South 10.4 mph - N/A   Mostly Cloudy
1:53 AM 81.0 °F 87.9 °F 77.0 °F 88% 29.73 in 10.0 mi South 17.3 mph - N/A   Overcast
2:43 AM 81.0 °F 87.9 °F 77.0 °F 88% 29.71 in 10.0 mi South 15.0 mph - N/A   Overcast
2:53 AM 81.0 °F 87.9 °F 77.0 °F 88% 29.70 in 10.0 mi South 15.0 mph - N/A   Overcast
3:53 AM 81.0 °F 87.9 °F 77.0 °F 88% 29.69 in 10.0 mi South 12.7 mph - N/A   Overcast
4:27 AM 80.1 °F 85.4 °F 75.9 °F 87% 29.71 in 10.0 mi South 10.4 mph - N/A   Overcast
4:53 AM 79.0 °F - 75.9 °F 90% 29.70 in 9.0 mi South 5.8 mph - N/A   Mostly Cloudy
5:43 AM 79.0 °F - 73.9 °F 84% 29.70 in 10.0 mi SE 8.1 mph - N/A Thunderstorm Thunderstorm
5:53 AM 78.1 °F - 73.9 °F 87% 29.72 in 3.0 mi South 12.7 mph 17.3 mph 0.08 in Rain , Thunderstorm Heavy Thunderstorms and Rain
5:58 AM 77.0 °F - 73.9 °F 90% 29.70 in 3.0 mi SSE 16.1 mph - 0.01 in Rain , Thunderstorm Rain
6:05 AM 77.0 °F - 73.9 °F 90% 29.71 in 8.0 mi SSE 16.1 mph - 0.01 in Rain Light Rain
6:41 AM 78.1 °F - 75.0 °F 90% 29.71 in 6.0 mi SSE 15.0 mph - 0.07 in Rain Heavy Rain
6:53 AM 77.0 °F - 75.0 °F 94% 29.71 in 7.0 mi South 17.3 mph - 0.08 in Rain Light Rain
7:03 AM 77.0 °F - 73.9 °F 90% 29.70 in 6.0 mi South 15.0 mph 27.6 mph 0.02 in Rain Light Rain
7:27 AM 77.0 °F - 75.0 °F 94% 29.72 in 10.0 mi South 9.2 mph - 0.02 in Rain Light Rain
7:43 AM 77.0 °F - 73.9 °F 90% 29.73 in 9.0 mi South 13.8 mph - 0.03 in Rain Light Rain
7:46 AM 77.0 °F - 73.9 °F 90% 29.74 in 9.0 mi SSW 10.4 mph - 0.03 in Rain Light Rain
7:53 AM 73.0 °F - 71.1 °F 93% 29.79 in 1.5 mi NW 16.1 mph 28.8 mph 0.25 in Rain Heavy Rain
8:04 AM 70.0 °F - 68.0 °F 93% 29.79 in 0.8 mi NNW 10.4 mph 27.6 mph 0.39 in Rain Heavy Rain
8:11 AM 70.0 °F - 68.0 °F 93% 29.80 in 1.8 mi NW 5.8 mph - 0.44 in Rain Heavy Rain
8:17 AM 70.0 °F - 68.0 °F 93% 29.80 in 2.5 mi North 10.4 mph - 0.53 in Rain Heavy Rain
8:26 AM 69.1 °F - 66.9 °F 93% 29.83 in 1.5 mi NW 9.2 mph - 0.70 in Rain Heavy Rain
8:42 AM 68.0 °F - 66.0 °F 93% 29.82 in 2.0 mi North 12.7 mph - 0.94 in Rain Heavy Rain
8:48 AM 68.0 °F - 66.2 °F 94% 29.83 in 6.0 mi NNW 8.1 mph - 0.95 in Rain Light Rain
8:53 AM 68.0 °F - 66.0 °F 93% 29.83 in 9.0 mi North 12.7 mph - 0.95 in Rain Light Rain
9:36 AM 66.9 °F - 64.9 °F 93% 29.83 in 1.5 mi Calm Calm - 0.11 in Rain Heavy Rain
9:51 AM 66.2 °F - 64.4 °F 94% 29.82 in 3.0 mi NE 6.9 mph - 0.18 in Rain Rain
9:53 AM 66.9 °F - 64.9 °F 93% 29.83 in 4.0 mi ENE 4.6 mph - 0.18 in Rain Rain
10:53 AM 68.0 °F - 66.0 °F 93% 29.86 in 10.0 mi NNE 3.5 mph - 0.02 in   Scattered Clouds
11:53 AM 69.1 °F - 66.0 °F 90% 29.86 in 10.0 mi North 8.1 mph - N/A   Mostly Cloudy
12:26 PM 70.0 °F - 66.0 °F 87% 29.86 in 10.0 mi North 11.5 mph - N/A   Partly Cloudy
12:53 PM 71.1 °F - 66.0 °F 84% 29.86 in 10.0 mi North 11.5 mph - N/A   Mostly Cloudy
1:53 PM 73.0 °F - 64.0 °F 73% 29.83 in 10.0 mi NNE 10.4 mph - N/A   Clear
2:53 PM 75.9 °F - 64.9 °F 69% 29.81 in 10.0 mi NNE 6.9 mph - N/A   Clear
3:53 PM 77.0 °F - 64.0 °F 64% 29.81 in 10.0 mi North 11.5 mph - N/A   Clear
4:53 PM 78.1 °F - 62.1 °F 58% 29.81 in 10.0 mi North 12.7 mph - N/A   Clear
5:53 PM 78.1 °F - 63.0 °F 60% 29.84 in 10.0 mi North 5.8 mph - N/A   Clear
7:53 PM 68.0 °F - 64.9 °F 90% 29.92 in 10.0 mi Calm Calm - N/A   Clear
8:53 PM 66.0 °F - 63.0 °F 90% 29.95 in 10.0 mi North 4.6 mph - N/A   Clear
9:53 PM 64.9 °F - 62.1 °F 90% 29.98 in 10.0 mi NNE 3.5 mph - N/A   Clear
10:53 PM 62.1 °F - 60.1 °F 93% 30.00 in 10.0 mi North 5.8 mph - N/A   Clear
11:53 PM 63.0 °F - 59.0 °F 87% 30.02 in 10.0 mi NNE 5.8 mph - N/A   Clear